DLH884 EDDF-EETN

Flight info

Callsign DLH884
Flight time 1h 56m
Altitude 37000
Route TOBAK8M/25C TOBAK N858 FEDZA Y172 MAG DCT RENKI L132 BODLA DCT PENOR DCT ANFEV DCT DIPEB DCT EVONA DCT TODNA DCT SULUN
Aircraft A320/M-SDE3FGHIRWY/LB1

Departure

Time 2026-05-04 15:12
Airport Frankfurt Main Airport (EDDF)

Arrival

Time 2026-05-04 17:08
Airport Lennart Meri Tallinn Airport (EETN)
Time Latitude Longitude Altitude Speed Heading
2026-05-04 14:09 50.04752 8.56883 356 ft 0 kts 294°
2026-05-04 15:00 50.04748 8.56899 363 ft 3 kts 293°
2026-05-04 15:01 50.04732 8.56955 362 ft 3 kts 281°
2026-05-04 15:01 50.04732 8.56982 362 ft 3 kts 231°
2026-05-04 15:01 50.04745 8.57000 364 ft 2 kts 205°
2026-05-04 15:01 50.04756 8.57008 362 ft 3 kts 204°
2026-05-04 15:02 50.04775 8.57021 360 ft 3 kts 205°
2026-05-04 15:02 50.04792 8.57033 359 ft 2 kts 205°
2026-05-04 15:02 50.04795 8.57035 358 ft 0 kts 205°
2026-05-04 15:05 50.04793 8.57034 356 ft 3 kts 205°
2026-05-04 15:05 50.04736 8.56992 362 ft 11 kts 205°
2026-05-04 15:06 50.04654 8.56935 363 ft 14 kts 204°
2026-05-04 15:06 50.04544 8.56889 361 ft 17 kts 191°
2026-05-04 15:06 50.04428 8.56847 365 ft 18 kts 189°
2026-05-04 15:07 50.04292 8.56977 361 ft 15 kts 69°
2026-05-04 15:07 50.04326 8.57114 361 ft 12 kts 69°
2026-05-04 15:07 50.04370 8.57304 367 ft 25 kts 70°
2026-05-04 15:07 50.04431 8.57555 365 ft 24 kts 70°
2026-05-04 15:08 50.04486 8.57782 368 ft 22 kts 70°
2026-05-04 15:08 50.04535 8.57993 367 ft 20 kts 72°
2026-05-04 15:08 50.04580 8.58187 366 ft 17 kts 69°
2026-05-04 15:08 50.04620 8.58340 371 ft 14 kts 68°
2026-05-04 15:09 50.04651 8.58493 370 ft 16 kts 81°
2026-05-04 15:09 50.04591 8.58591 369 ft 11 kts 157°
2026-05-04 15:09 50.04518 8.58624 371 ft 17 kts 181°
2026-05-04 15:10 50.04467 8.58505 373 ft 0 kts 248°
2026-05-04 15:10 50.04467 8.58503 372 ft 2 kts 248°
2026-05-04 15:11 50.04409 8.58259 370 ft 60 kts 250°
2026-05-04 15:11 50.04183 8.57320 367 ft 122 kts 249°
2026-05-04 15:11 50.03829 8.55832 377 ft 168 kts 250°
2026-05-04 15:11 50.03435 8.54087 921 ft 173 kts 250°
2026-05-04 15:12 50.03034 8.52278 1621 ft 180 kts 251°
2026-05-04 15:12 50.02505 8.50470 2224 ft 189 kts 231°
2026-05-04 15:12 50.01364 8.49369 2850 ft 202 kts 200°
2026-05-04 15:12 49.99990 8.48763 3465 ft 208 kts 198°
2026-05-04 15:13 49.98584 8.48144 4134 ft 211 kts 198°
2026-05-04 15:13 49.97174 8.47521 4897 ft 210 kts 198°
2026-05-04 15:13 49.95777 8.46898 5639 ft 209 kts 197°
2026-05-04 15:13 49.94336 8.46240 6070 ft 224 kts 196°
2026-05-04 15:14 49.92777 8.45523 6588 ft 238 kts 196°
2026-05-04 15:14 49.91281 8.44399 7415 ft 243 kts 219°
2026-05-04 15:14 49.90320 8.42286 8274 ft 250 kts 248°
2026-05-04 15:14 49.90197 8.39539 9192 ft 261 kts 279°
2026-05-04 15:15 49.91068 8.37066 10064 ft 276 kts 313°
2026-05-04 15:15 49.92750 8.35487 10675 ft 296 kts 334°
2026-05-04 15:15 49.94721 8.34185 10989 ft 320 kts 335°
2026-05-04 15:16 49.99118 8.31379 11839 ft 356 kts 335°
2026-05-04 15:16 50.01439 8.29953 12580 ft 362 kts 340°
2026-05-04 15:16 50.06496 8.29124 14096 ft 373 kts
2026-05-04 15:17 50.09051 8.29966 14756 ft 377 kts 18°
2026-05-04 15:17 50.13213 8.32151 15838 ft 384 kts 18°
2026-05-04 15:17 50.16629 8.33949 16702 ft 390 kts 18°
2026-05-04 15:18 50.18334 8.34848 17134 ft 393 kts 18°
2026-05-04 15:18 50.20941 8.36224 17760 ft 397 kts 18°
2026-05-04 15:18 50.23570 8.37611 18350 ft 401 kts 18°
2026-05-04 15:19 50.28802 8.40843 19390 ft 409 kts 30°
2026-05-04 15:19 50.31155 8.43350 19907 ft 412 kts 40°
2026-05-04 15:19 50.35474 8.49338 20928 ft 418 kts 42°
2026-05-04 15:20 50.37655 8.52370 21440 ft 421 kts 42°
2026-05-04 15:20 50.39858 8.55434 21923 ft 425 kts 42°
2026-05-04 15:20 50.42076 8.58522 22405 ft 428 kts 42°
2026-05-04 15:20 50.44311 8.61637 22860 ft 431 kts 42°
2026-05-04 15:21 50.46578 8.64748 23353 ft 435 kts 40°
2026-05-04 15:21 50.48901 8.67830 23838 ft 439 kts 40°
2026-05-04 15:21 50.53641 8.73977 24675 ft 445 kts 39°
2026-05-04 15:22 50.55956 8.77236 25052 ft 448 kts 47°
2026-05-04 15:22 50.57937 8.81044 25415 ft 450 kts 57°
2026-05-04 15:22 50.61028 8.89642 26117 ft 454 kts 63°
2026-05-04 15:23 50.62543 8.94021 26465 ft 457 kts 63°
2026-05-04 15:23 50.64051 8.98372 26816 ft 460 kts 63°
2026-05-04 15:23 50.65611 9.02858 27172 ft 462 kts 63°
2026-05-04 15:23 50.67137 9.07247 27542 ft 465 kts 63°
2026-05-04 15:24 50.70278 9.16331 28251 ft 471 kts 63°
2026-05-04 15:24 50.73354 9.25427 28914 ft 476 kts 64°
2026-05-04 15:25 50.74846 9.30115 29224 ft 478 kts 65°
2026-05-04 15:25 50.76308 9.34846 29526 ft 481 kts 66°
2026-05-04 15:25 50.77762 9.39616 29818 ft 483 kts 66°
2026-05-04 15:26 50.80703 9.49211 30351 ft 488 kts 65°
2026-05-04 15:26 50.82206 9.54041 30608 ft 489 kts 65°
2026-05-04 15:26 50.85232 9.63727 31105 ft 493 kts 65°
2026-05-04 15:27 50.86745 9.68589 31466 ft 492 kts 65°
2026-05-04 15:27 50.89750 9.78316 32180 ft 491 kts 65°
2026-05-04 15:28 50.92731 9.88031 32871 ft 490 kts 65°
2026-05-04 15:28 50.94214 9.92886 33203 ft 489 kts 65°
2026-05-04 15:28 50.97178 10.02617 33864 ft 489 kts 64°
2026-05-04 15:29 50.98634 10.07405 34176 ft 489 kts 64°
2026-05-04 15:30 51.04494 10.26801 35357 ft 485 kts 65°
2026-05-04 15:30 51.10790 10.39003 36127 ft 479 kts 32°
2026-05-04 15:31 51.16366 10.44754 36586 ft 477 kts 31°
2026-05-04 15:31 51.19127 10.47695 36823 ft 477 kts 32°
2026-05-04 15:32 51.27363 10.56616 36984 ft 476 kts 31°
2026-05-04 15:32 51.32875 10.62507 36984 ft 476 kts 31°
2026-05-04 15:34 51.46403 10.77894 36985 ft 478 kts 36°
2026-05-04 15:34 51.53993 10.88269 36982 ft 480 kts 48°
2026-05-04 15:35 51.60345 11.00749 36979 ft 481 kts 50°
2026-05-04 15:36 51.66673 11.13287 36974 ft 481 kts 50°
2026-05-04 15:36 51.70888 11.21670 36973 ft 481 kts 50°
2026-05-04 15:37 51.75098 11.30070 36972 ft 481 kts 50°
2026-05-04 15:37 51.79292 11.38500 36976 ft 482 kts 50°
2026-05-04 15:38 51.83463 11.46888 36975 ft 482 kts 50°
2026-05-04 15:38 51.87653 11.55345 36974 ft 482 kts 50°
2026-05-04 15:39 51.91839 11.63825 36973 ft 482 kts 50°
2026-05-04 15:40 51.98103 11.76572 36973 ft 482 kts 50°
2026-05-04 15:40 52.02193 11.85210 36972 ft 483 kts 52°
2026-05-04 15:41 52.06081 11.94112 36978 ft 483 kts 53°
2026-05-04 15:41 52.09927 12.03086 36974 ft 484 kts 53°
2026-05-04 15:42 52.13785 12.11969 36980 ft 484 kts 52°
2026-05-04 15:42 52.17696 12.20887 36983 ft 484 kts 52°
2026-05-04 15:43 52.21597 12.29823 36980 ft 484 kts 52°
2026-05-04 15:43 52.25480 12.38783 36981 ft 483 kts 53°
2026-05-04 15:44 52.29356 12.47768 36979 ft 483 kts 53°
2026-05-04 15:44 52.33221 12.56759 36982 ft 483 kts 53°
2026-05-04 15:45 52.37089 12.65777 36973 ft 483 kts 53°
2026-05-04 15:45 52.40936 12.74775 36976 ft 483 kts 53°
2026-05-04 15:46 52.44788 12.83821 36979 ft 483 kts 53°
2026-05-04 15:46 52.48605 12.92823 36980 ft 483 kts 53°
2026-05-04 15:47 52.52441 13.01886 36976 ft 483 kts 53°
2026-05-04 15:47 52.56276 13.10975 36979 ft 483 kts 53°
2026-05-04 15:48 52.60095 13.20076 36984 ft 483 kts 53°
2026-05-04 15:48 52.65808 13.33774 36985 ft 484 kts 53°
2026-05-04 15:49 52.69613 13.42916 36986 ft 484 kts 53°
2026-05-04 15:49 52.73412 13.52078 36991 ft 484 kts 53°
2026-05-04 15:50 52.77200 13.61257 36990 ft 484 kts 53°
2026-05-04 15:50 52.80955 13.70389 36986 ft 483 kts 53°
2026-05-04 15:51 52.84731 13.79597 36982 ft 483 kts 53°
2026-05-04 15:51 52.88495 13.88806 36979 ft 483 kts 53°
2026-05-04 15:52 52.92709 13.97363 36969 ft 477 kts 39°
2026-05-04 15:52 52.97913 14.04059 36967 ft 473 kts 32°
2026-05-04 15:53 53.03197 14.10575 36967 ft 473 kts 33°
2026-05-04 15:53 53.08467 14.17112 36964 ft 473 kts 33°
2026-05-04 15:54 53.13736 14.23668 36963 ft 473 kts 33°
2026-05-04 15:54 53.18999 14.30235 36950 ft 473 kts 33°
2026-05-04 15:55 53.24255 14.36820 36955 ft 473 kts 33°
2026-05-04 15:55 53.29542 14.43359 36956 ft 472 kts 31°
2026-05-04 15:56 53.35012 14.49377 36961 ft 470 kts 28°
2026-05-04 15:56 53.40570 14.55181 36967 ft 470 kts 28°
2026-05-04 15:57 53.46052 14.61061 36972 ft 471 kts 29°
2026-05-04 15:57 53.51534 14.67110 36980 ft 472 kts 29°
2026-05-04 15:58 53.57013 14.73188 36986 ft 472 kts 29°
2026-05-04 15:58 53.62502 14.79278 36990 ft 472 kts 29°
2026-05-04 15:59 53.67998 14.85379 36990 ft 472 kts 29°
2026-05-04 15:59 53.73489 14.91475 36991 ft 472 kts 29°
2026-05-04 16:00 53.78981 14.97589 36983 ft 473 kts 29°
2026-05-04 16:00 53.84463 15.03731 36975 ft 473 kts 30°
2026-05-04 16:01 53.89942 15.09894 36970 ft 473 kts 30°
2026-05-04 16:01 53.95420 15.16062 36969 ft 473 kts 30°
2026-05-04 16:02 54.00908 15.22250 36973 ft 473 kts 30°
2026-05-04 16:03 54.09090 15.31534 36965 ft 473 kts 30°
2026-05-04 16:03 54.14572 15.37798 36948 ft 474 kts 30°
2026-05-04 16:04 54.20054 15.44078 36949 ft 475 kts 30°
2026-05-04 16:04 54.27365 15.52470 36949 ft 476 kts 30°
2026-05-04 16:05 54.32869 15.58804 36956 ft 478 kts 30°
2026-05-04 16:06 54.41164 15.68390 36953 ft 479 kts 30°
2026-05-04 16:07 54.52223 15.81260 36944 ft 480 kts 30°
2026-05-04 16:08 54.63289 15.94214 36944 ft 481 kts 31°
2026-05-04 16:09 54.77124 16.10539 36940 ft 482 kts 31°
2026-05-04 16:10 54.88157 16.23657 36931 ft 482 kts 31°
2026-05-04 16:11 54.99219 16.36903 36920 ft 483 kts 31°
2026-05-04 16:12 55.15818 16.56948 36915 ft 483 kts 31°
2026-05-04 16:13 55.26878 16.70386 36913 ft 483 kts 31°
2026-05-04 16:14 55.37914 16.83944 36911 ft 484 kts 31°
2026-05-04 16:16 55.51663 17.00919 36910 ft 484 kts 31°
2026-05-04 16:17 55.65706 17.17069 36908 ft 474 kts 16°
2026-05-04 16:18 55.77995 17.25243 36893 ft 480 kts 28°
2026-05-04 16:19 55.85499 17.37264 36876 ft 487 kts 42°
2026-05-04 16:19 55.90234 17.45895 36873 ft 487 kts 42°
2026-05-04 16:20 56.02067 17.67585 36868 ft 488 kts 43°
2026-05-04 16:22 56.13825 17.89360 36859 ft 488 kts 43°
2026-05-04 16:23 56.27836 18.15914 36852 ft 487 kts 44°
2026-05-04 16:25 56.41680 18.42629 36837 ft 487 kts 44°
2026-05-04 16:26 56.57809 18.74135 36835 ft 487 kts 44°
2026-05-04 16:28 56.69241 18.96710 36832 ft 487 kts 44°
2026-05-04 16:29 56.85227 19.28650 36816 ft 487 kts 44°
2026-05-04 16:31 56.96587 19.51644 36820 ft 487 kts 44°
2026-05-04 16:32 57.10144 19.79346 36815 ft 487 kts 45°
2026-05-04 16:33 57.19210 19.97890 36811 ft 486 kts 42°
2026-05-04 16:34 57.26354 20.11138 36809 ft 485 kts 41°
2026-05-04 16:35 57.40498 20.37854 36797 ft 485 kts 42°
2026-05-04 16:36 57.47534 20.51379 36802 ft 485 kts 42°
2026-05-04 16:37 57.54562 20.64925 36798 ft 485 kts 42°
2026-05-04 16:38 57.63904 20.83074 36795 ft 485 kts 42°
2026-05-04 16:39 57.75550 21.05892 36786 ft 485 kts 43°
2026-05-04 16:40 57.84843 21.24270 36791 ft 485 kts 43°
2026-05-04 16:41 57.96392 21.47308 36778 ft 486 kts 43°
2026-05-04 16:43 58.07129 21.72066 36783 ft 489 kts 49°
2026-05-04 16:43 58.13308 21.87442 36779 ft 490 kts 49°
2026-05-04 16:45 58.25617 22.18395 36779 ft 490 kts 50°
2026-05-04 16:46 58.35793 22.44294 36786 ft 490 kts 50°
2026-05-04 16:47 58.39864 22.54727 36053 ft 496 kts 50°
2026-05-04 16:47 58.44049 22.65499 34039 ft 510 kts 50°
2026-05-04 16:48 58.50389 22.81950 31656 ft 508 kts 50°
2026-05-04 16:48 58.52472 22.87390 30992 ft 505 kts 50°
2026-05-04 16:49 58.56577 22.98137 29646 ft 494 kts 50°
2026-05-04 16:49 58.60550 23.08571 28356 ft 479 kts 50°
2026-05-04 16:50 58.64445 23.18815 27124 ft 471 kts 50°
2026-05-04 16:50 58.67625 23.27220 26153 ft 464 kts 50°
2026-05-04 16:51 58.71379 23.37198 25039 ft 456 kts 50°
2026-05-04 16:51 58.73227 23.42122 24498 ft 452 kts 50°
2026-05-04 16:51 58.76872 23.51855 23428 ft 445 kts 50°
2026-05-04 16:52 58.80451 23.61469 22295 ft 437 kts 50°
2026-05-04 16:52 58.82207 23.66206 21754 ft 433 kts 50°
2026-05-04 16:53 58.85693 23.75635 20656 ft 427 kts 50°
2026-05-04 16:53 58.90824 23.89508 19002 ft 423 kts 51°
2026-05-04 16:54 58.92523 23.94133 18546 ft 419 kts 51°
2026-05-04 16:55 58.98900 24.12458 16680 ft 400 kts 55°
2026-05-04 16:55 59.01745 24.21700 15660 ft 398 kts 56°
2026-05-04 16:56 59.04566 24.30906 14729 ft 394 kts 56°
2026-05-04 16:56 59.08770 24.44447 13394 ft 383 kts 56°
2026-05-04 16:57 59.10138 24.48846 12612 ft 380 kts 56°
2026-05-04 16:57 59.12858 24.57596 11632 ft 375 kts 56°
2026-05-04 16:58 59.16811 24.70504 10251 ft 366 kts 57°
2026-05-04 16:58 59.18101 24.74757 9906 ft 360 kts 57°
2026-05-04 16:59 59.20558 24.82886 9663 ft 336 kts 57°
2026-05-04 17:00 59.25071 24.97893 7920 ft 313 kts 57°
2026-05-04 17:00 59.28320 25.08722 6621 ft 306 kts 57°
2026-05-04 17:01 59.30432 25.15786 5547 ft 296 kts 57°
2026-05-04 17:01 59.32963 25.21976 5370 ft 290 kts 29°
2026-05-04 17:02 59.36708 25.23880 4598 ft 266 kts 355°
2026-05-04 17:02 59.40138 25.22505 3430 ft 241 kts 315°
2026-05-04 17:03 59.41013 25.19963 3249 ft 215 kts 285°
2026-05-04 17:03 59.41170 25.17197 3127 ft 196 kts 270°
2026-05-04 17:03 59.41206 25.12146 2709 ft 179 kts 270°
2026-05-04 17:04 59.41231 25.07320 2149 ft 176 kts 270°
2026-05-04 17:04 59.41252 25.02529 1669 ft 173 kts 270°
2026-05-04 17:05 59.41271 24.98229 1219 ft 141 kts 270°
2026-05-04 17:05 59.41287 24.94539 883 ft 132 kts 268°
2026-05-04 17:06 59.41313 24.90983 614 ft 128 kts 269°
2026-05-04 17:06 59.41317 24.89241 466 ft 127 kts 268°
2026-05-04 17:07 59.41322 24.85827 165 ft 117 kts 270°
2026-05-04 17:07 59.41323 24.84895 162 ft 85 kts 271°
2026-05-04 17:07 59.41324 24.83553 164 ft 64 kts 270°
2026-05-04 17:07 59.41325 24.82748 161 ft 54 kts 270°
2026-05-04 17:08 59.41328 24.82076 162 ft 45 kts 269°
2026-05-04 17:08 59.41333 24.81041 160 ft 34 kts 271°
2026-05-04 17:08 59.41358 24.80638 160 ft 24 kts 306°
2026-05-04 17:09 59.41461 24.80466 162 ft 18 kts 355°
2026-05-04 17:09 59.41526 24.80368 162 ft 13 kts 275°
2026-05-04 17:09 59.41529 24.80174 162 ft 15 kts 272°
2026-05-04 17:10 59.41566 24.80136 162 ft 1 kts 356°
2026-05-04 17:10 59.41586 24.80135 162 ft 0 kts 359°